Wind_Speed
5 5 5 5 5 4 5 5 5 5 5 5 6 6 6 6 7 7 8 9 9 10 11 12 12 12 12 12 13 13 13 14 15 15 16 17 17 18
6 6 5 5 4 4 5 5 5 5 5 6 6 6 6 7 8 8 9 9 10 11 11 12 12 13 13 13 14 14 15 15 15 16 17 18 18 19
6 6 5 5 5 5 5 6 6 6 6 6 7 7 7 8 8 9 10 10 11 12 12 12 13 13 13 14 15 15 16 16 17 18 18 18 19 20
6 6 5 5 6 6 6 6 6 7 7 8 8 8 9 10 10 11 11 11 12 13 13 13 14 14 15 15 16 16 17 17 18 19 19 20 20 21
6 6 6 6 6 6 7 7 8 8 8 9 9 9 10 10 11 11 12 13 14 14 14 15 16 16 16 17 17 18 18 19 19 20 21 21 22 22
7 7 7 7 7 7 8 8 9 9 10 10 10 10 10 11 11 12 13 14 15 15 16 16 17 18 18 18 19 19 20 20 21 21 22 22 23 24
9 9 8 8 9 9 9 9 9 10 10 10 11 11 12 12 13 13 14 15 16 16 17 17 18 19 19 20 21 21 22 22 23 23 24 24 25 26
10 10 10 10 10 10 10 10 10 10 11 12 12 13 14 14 15 16 16 17 17 18 19 19 20 20 21 22 22 23 24 24 25 25 26 27 27 28
11 11 11 11 12 12 12 12 12 13 13 14 14 15 15 16 17 18 18 19 20 20 21 21 22 22 23 23 24 24 25 26 26 27 28 28 29 30
13 13 13 13 13 13 13 14 14 15 15 16 16 17 18 19 19 20 21 21 22 22 23 23 23 24 24 25 25 26 27 27 28 29 30 31 32 33
15 15 15 15 15 15 16 16 16 17 17 18 19 19 20 20 21 21 22 23 23 23 23 24 25 25 26 27 27 28 29 29 30 31 32 33 33 34
16 16 15 15 16 16 17 18 18 19 19 20 20 21 21 21 22 23 23 24 24 24 24 25 26 27 27 28 29 29 30 30 31 32 33 34 34 35
17 17 17 17 17 17 18 19 20 20 21 21 21 22 23 24 24 24 25 25 25 25 26 26 27 28 29 29 31 31 32 32 33 33 34 34 35 36
19 19 19 19 19 20 20 20 20 21 21 22 22 23 23 24 24 25 25 26 26 27 28 28 29 30 30 31 32 32 33 33 34 34 34 34 35 35
20 20 20 21 21 21 21 21 21 21 22 22 22 23 23 24 24 25 26 26 27 28 29 29 30 31 31 32 32 33 33 34 34 34 34 34 35 35
22 21 22 22 22 22 22 22 22 23 23 23 24 24 25 25 25 26 26 27 27 28 28 30 31 32 32 32 33 34 34 34 34 34 34 35 35 36
23 23 23 24 24 23 23 23 23 24 24 25 25 25 26 26 27 27 27 27 27 28 29 31 32 33 33 34 34 34 35 35 35 35 36 36 37 38
24 24 24 24 24 24 24 24 25 25 25 26 26 26 27 27 27 27 28 28 29 30 31 32 32 33 34 34 35 35 35 35 36 36 37 38 38 39
24 24 24 24 24 24 24 24 25 25 26 26 26 27 28 28 29 29 29 30 30 31 32 33 34 34 34 34 34 36 36 36 37 37 38 38 38 38
23 23 23 24 24 24 24 24 25 26 27 27 27 28 28 29 29 30 30 31 31 32 33 34 35 35 35 35 36 36 37 38 38 38 38 38 38 38
22 23 24 24 24 24 24 25 26 27 27 28 28 29 29 30 30 31 31 32 32 33 34 34 35 36 37 37 37 37 38 39 39 39 39 39 39 39
23 24 24 24 24 25 25 26 27 28 29 30 30 31 31 32 32 32 33 33 34 34 35 36 36 37 38 38 39 39 39 39 40 41 41 41 41 41
23 23 24 24 25 26 27 27 27 28 29 30 31 31 32 33 33 34 34 35 35 36 36 37 38 39 39 40 40 40 40 40 40 41 41 42 42 42
Wind_Direction
263 267 270 274 277 281 283 283 286 290 293 294 293 289 293 296 297 291 291 292 293 295 296 294 293 294 291 289 287 287 286 288 288 288 288 290 292 292
267 266 264 266 273 277 277 279 285 290 292 295 294 296 299 301 299 297 295 294 295 297 298 297 298 297 293 291 291 292 294 295 295 294 294 293 293 294
267 265 259 264 270 273 274 274 279 286 290 294 295 293 293 298 302 301 298 299 301 301 301 302 303 302 298 295 293 294 295 294 293 293 291 291 294 295
267 264 266 274 277 278 279 276 280 287 290 291 293 292 292 295 298 299 299 298 299 299 300 301 301 301 300 299 298 296 297 296 295 294 292 292 293 295
264 266 270 276 280 279 278 280 285 289 291 291 291 292 294 295 296 298 298 297 296 297 298 299 299 299 299 298 298 298 298 298 298 295 294 294 294 295
263 265 270 275 277 278 279 282 285 288 291 292 292 294 294 296 298 298 299 299 296 296 298 299 299 300 300 299 299 298 297 297 296 296 294 293 293 294
266 268 271 278 279 280 279 280 283 286 288 291 292 292 293 297 298 298 299 300 299 298 300 300 299 299 300 300 300 299 298 297 297 296 295 294 294 294
267 270 270 275 279 280 279 278 281 285 287 289 291 292 293 295 297 298 298 298 299 299 300 300 299 299 300 300 300 299 298 298 297 296 295 294 294 294
265 269 271 273 276 279 279 280 283 284 285 286 288 291 292 293 293 294 295 296 297 298 299 301 302 301 300 300 301 299 298 297 297 296 296 296 295 295
267 269 272 277 279 280 282 282 282 282 283 285 288 291 291 291 292 292 293 294 295 296 297 298 300 301 302 302 301 301 301 299 298 297 296 296 295 294
268 270 273 278 280 280 281 282 283 283 284 285 287 290 291 291 291 293 293 294 295 297 298 299 300 300 300 300 301 302 302 301 300 299 298 297 296 295
267 270 273 276 278 280 282 282 284 284 285 285 287 288 290 291 292 293 294 296 296 297 298 299 299 300 300 301 302 303 302 301 300 300 300 300 299 298
266 269 272 276 278 280 283 285 285 284 284 286 288 289 290 290 291 293 295 296 297 298 298 299 300 300 301 301 302 302 301 300 300 301 301 301 300 300
266 269 272 274 276 279 283 286 288 287 286 286 288 290 291 291 292 293 295 295 296 297 298 299 300 300 301 301 301 301 301 301 301 301 301 302 302 302
267 269 270 273 276 279 282 285 288 288 289 289 289 291 292 293 294 294 294 295 296 297 298 299 300 301 302 301 302 302 301 301 301 302 302 303 303 303
266 269 271 273 276 279 281 285 286 286 287 288 290 292 292 293 294 295 296 296 297 298 300 300 301 301 302 302 302 302 302 302 301 301 303 304 305 304
266 269 271 274 277 279 282 284 284 284 286 288 290 291 291 292 294 295 297 298 298 300 301 301 302 302 302 302 302 302 301 301 300 300 301 303 304 305
268 270 273 276 278 279 281 282 282 283 286 287 288 291 292 294 295 297 297 298 298 299 300 301 302 302 302 302 303 302 302 301 301 301 301 302 303 303
269 270 273 275 277 278 279 281 281 283 287 288 289 290 292 293 295 296 296 297 298 299 300 301 302 301 301 302 302 302 301 301 301 302 302 303 303 303
271 272 275 276 276 278 280 281 282 284 287 289 290 291 293 295 296 296 296 297 297 299 300 301 301 301 301 302 302 301 301 301 301 301 302 303 303 303
272 274 277 278 278 279 281 283 284 285 287 288 290 292 294 296 297 296 296 297 298 298 299 300 301 301 301 301 302 301 301 301 301 302 302 303 303 303
274 275 277 277 279 281 283 284 285 285 287 289 290 291 293 295 297 297 296 297 298 299 299 300 300 301 301 302 302 302 301 300 300 301 302 302 303 302
274 276 278 278 279 280 283 285 286 286 287 289 292 292 293 295 296 297 297 297 298 298 299 300 300 301 301 302 302 302 301 300 300 300 301 302 302 302
Height
5849 5849 5848 5848 5847 5846 5846 5845 5845 5844 5843 5842 5841 5840 5839 5838 5837 5837 5836 5835 5834 5832 5831 5829 5828 5827 5826 5825 5824 5823 5821 5820 5819 5817 5816 5814 5813 5811
5848 5847 5847 5846 5846 5845 5845 5844 5843 5843 5842 5841 5840 5839 5838 5837 5836 5835 5834 5833 5832 5830 5829 5827 5825 5824 5823 5822 5821 5819 5818 5817 5815 5814 5812 5810 5809 5807
5846 5846 5845 5845 5844 5844 5843 5843 5842 5841 5840 5839 5838 5837 5836 5835 5834 5833 5832 5830 5829 5828 5826 5824 5823 5821 5820 5818 5817 5816 5814 5813 5811 5809 5808 5806 5804 5802
5845 5844 5844 5843 5843 5842 5842 5841 5841 5840 5839 5838 5837 5835 5834 5833 5832 5831 5829 5828 5826 5825 5823 5822 5820 5818 5817 5815 5813 5812 5810 5808 5807 5805 5803 5801 5799 5797
5843 5843 5842 5842 5841 5841 5840 5839 5839 5838 5837 5836 5835 5833 5832 5831 5829 5828 5826 5825 5823 5821 5820 5818 5817 5815 5813 5811 5809 5808 5806 5804 5802 5800 5798 5796 5794 5792
5841 5841 5840 5840 5839 5839 5838 5837 5836 5835 5834 5833 5832 5831 5829 5828 5826 5825 5823 5821 5820 5818 5816 5814 5813 5811 5809 5807 5805 5803 5801 5799 5797 5795 5793 5791 5788 5786
5839 5839 5838 5838 5837 5836 5835 5835 5834 5833 5832 5830 5829 5828 5827 5825 5824 5822 5820 5818 5816 5814 5812 5810 5809 5807 5805 5803 5800 5798 5796 5794 5792 5789 5787 5784 5782 5780
5836 5836 5835 5835 5834 5833 5833 5832 5831 5830 5829 5828 5826 5825 5823 5822 5820 5818 5816 5814 5813 5811 5808 5806 5804 5802 5800 5798 5795 5793 5790 5788 5785 5783 5780 5778 5775 5772
5833 5832 5832 5832 5831 5830 5829 5828 5827 5826 5825 5824 5823 5821 5819 5818 5816 5814 5812 5810 5808 5806 5804 5801 5799 5797 5794 5792 5789 5787 5784 5781 5779 5776 5773 5770 5767 5764
5829 5829 5829 5828 5827 5827 5826 5825 5824 5822 5821 5820 5819 5817 5815 5813 5811 5809 5807 5805 5803 5801 5798 5796 5793 5791 5788 5786 5783 5780 5777 5774 5771 5768 5765 5762 5759 5756
5825 5825 5825 5824 5823 5822 5822 5820 5819 5818 5816 5815 5813 5812 5810 5808 5806 5804 5801 5799 5797 5795 5792 5790 5787 5784 5782 5779 5776 5773 5769 5766 5763 5759 5756 5753 5749 5746
5821 5820 5820 5819 5819 5818 5817 5816 5815 5813 5812 5810 5808 5806 5804 5802 5800 5798 5795 5793 5791 5789 5786 5783 5781 5778 5775 5771 5768 5765 5761 5757 5754 5750 5747 5743 5739 5735
5815 5815 5815 5814 5814 5813 5812 5811 5809 5807 5806 5804 5802 5800 5798 5796 5794 5791 5789 5787 5784 5782 5780 5777 5773 5770 5767 5764 5760 5756 5752 5749 5745 5741 5737 5733 5729 5725
5810 5810 5809 5809 5808 5807 5806 5805 5803 5801 5800 5798 5796 5794 5792 5790 5787 5785 5782 5780 5777 5775 5772 5769 5766 5762 5759 5755 5752 5748 5743 5739 5735 5731 5727 5723 5719 5714
5803 5803 5803 5802 5802 5801 5800 5798 5797 5795 5793 5791 5790 5788 5785 5783 5780 5778 5775 5772 5770 5767 5764 5761 5757 5754 5750 5746 5743 5739 5735 5730 5726 5722 5718 5713 5709 5705
5797 5797 5796 5796 5795 5794 5793 5792 5790 5788 5787 5785 5783 5781 5778 5776 5773 5771 5768 5765 5762 5759 5756 5752 5749 5745 5742 5738 5734 5729 5725 5721 5717 5712 5708 5704 5699 5694
5790 5790 5790 5789 5789 5788 5786 5785 5783 5782 5780 5778 5776 5774 5771 5769 5766 5763 5760 5757 5754 5751 5747 5744 5740 5736 5733 5729 5724 5720 5716 5711 5707 5702 5698 5694 5689 5684
5783 5783 5783 5782 5781 5780 5779 5777 5776 5774 5773 5771 5769 5766 5764 5761 5758 5755 5752 5749 5746 5743 5739 5735 5731 5727 5723 5719 5715 5710 5706 5701 5697 5692 5688 5683 5679 5673
5775 5775 5775 5774 5774 5772 5771 5770 5768 5767 5765 5763 5761 5758 5756 5753 5750 5747 5744 5741 5737 5734 5730 5726 5722 5718 5714 5710 5706 5700 5696 5691 5687 5682 5677 5673 5668 5663
5768 5768 5768 5766 5766 5765 5764 5762 5761 5759 5757 5755 5753 5750 5748 5745 5742 5739 5735 5732 5728 5724 5721 5716 5712 5708 5704 5700 5695 5690 5685 5680 5676 5671 5667 5662 5657 5653
5761 5761 5760 5759 5758 5757 5756 5754 5753 5751 5749 5747 5745 5742 5739 5736 5733 5729 5726 5722 5718 5715 5711 5707 5702 5698 5693 5689 5685 5680 5675 5670 5665 5660 5656 5651 5647 5642
5753 5753 5752 5751 5750 5749 5748 5746 5744 5743 5740 5738 5736 5733 5730 5727 5723 5720 5716 5712 5708 5704 5700 5696 5692 5687 5683 5678 5674 5669 5664 5659 5654 5649 5644 5640 5635 5630
5746 5745 5744 5743 5742 5740 5739 5737 5735 5734 5731 5729 5726 5723 5720 5717 5713 5710 5706 5702 5698 5694 5690 5685 5681 5676 5672 5667 5662 5657 5652 5648 5643 5638 5633 5628 5623 5619